SCP
0 0 0 0 0 0 0 0 0 0 0 1 1 1 1 1 1 0 0 0 0 0 0 0 1 1 0 0 0 0 0 0 0 0 0 0 0 0 0 0 0 0 0
1 1 1 1 0 0 0 0 0 0 0 0 1 1 1 1 1 0 0 0 0 0 0 0 0 0 0 0 0 1 1 0 0 0 0 0 0 0 0 0 0 0 0
1 1 1 1 0 0 0 0 0 1 0 0 0 1 1 1 1 0 0 0 0 0 0 0 0 0 0 0 0 1 1 1 0 0 0 0 0 0 0 0 0 0 0
1 1 1 1 1 1 0 0 0 1 0 0 0 1 1 1 1 0 0 0 0 0 0 0 0 0 0 0 1 0 0 0 0 0 0 0 0 0 0 0 0 0 0
2 1 1 1 1 1 1 1 1 0 0 0 0 1 1 1 1 0 0 0 0 0 0 0 0 1 1 1 0 0 0 0 0 0 0 0 0 0 0 0 0 0 0
1 1 1 1 1 1 1 1 1 1 0 0 1 1 1 1 0 0 0 0 0 0 0 0 0 0 0 0 0 0 0 0 0 0 0 0 0 0 0 0 0 0 0
1 1 1 1 1 1 1 1 1 1 1 0 0 1 1 1 0 0 0 0 0 0 0 0 0 0 0 0 0 0 0 0 0 0 0 0 0 0 0 0 0 0 0
1 1 1 1 1 1 1 1 1 1 1 1 0 1 1 0 0 0 0 0 0 0 0 0 0 0 0 0 0 0 1 0 0 0 0 0 0 0 1 0 0 0 0
1 1 1 1 1 1 1 1 1 1 1 1 1 1 1 0 0 0 0 0 0 0 0 0 0 0 0 0 0 0 1 0 0 0 0 0 0 1 1 1 0 0 0
1 1 1 1 1 1 1 1 1 1 1 1 1 1 1 1 0 0 0 0 0 0 0 0 0 0 0 0 0 0 0 0 0 0 0 0 0 0 0 0 0 0 0
1 1 1 1 1 1 1 1 1 1 1 1 1 1 1 0 0 0 0 0 0 0 0 1 0 0 0 0 0 0 0 0 0 0 0 0 0 0 0 0 0 0 0
2 2 1 1 1 1 1 1 1 1 1 1 1 1 1 0 0 0 0 0 0 0 0 0 0 0 0 0 0 0 1 1 1 0 0 0 1 1 1 0 0 0 0
3 2 1 1 1 1 1 1 1 0 0 0 0 0 0 0 0 0 0 0 0 0 0 0 0 0 0 0 0 0 1 1 1 0 0 1 1 1 1 1 0 0 0
3 2 1 1 1 1 1 1 1 1 0 0 0 0 0 0 0 0 0 0 0 0 0 0 0 0 0 0 0 0 0 1 1 0 0 1 1 1 1 1 1 0 0
3 2 2 1 1 1 1 1 1 1 1 1 0 0 0 0 0 0 0 0 0 0 0 0 0 0 0 0 0 0 0 0 0 0 0 1 1 1 1 1 1 1 1
3 3 3 2 1 1 1 1 1 1 1 1 1 1 0 0 0 0 0 0 0 0 0 0 0 0 0 0 0 0 0 0 0 0 1 1 1 1 1 1 1 1 1
4 4 3 2 2 1 1 1 1 1 1 1 1 1 1 1 0 0 0 0 0 0 0 0 0 0 0 0 0 0 0 0 0 0 1 1 1 1 1 1 1 1 1
5 4 4 3 2 1 1 1 1 1 1 1 1 1 1 1 1 0 0 0 0 0 0 0 0 0 0 0 0 0 0 0 0 1 1 1 1 1 1 1 1 1 1
4 4 4 3 2 2 1 1 1 1 1 2 1 1 1 1 1 1 1 1 1 0 0 0 0 0 0 0 0 0 0 0 0 0 1 1 1 1 1 1 1 1 2
4 4 4 3 3 2 2 2 2 2 2 2 1 1 1 1 1 1 1 1 1 0 0 0 0 0 0 0 0 0 0 0 0 0 0 1 1 1 1 1 1 1 1
4 4 3 3 2 2 2 2 2 2 2 2 1 1 1 1 1 1 1 1 0 0 0 0 0 0 0 0 0 0 0 0 0 0 0 1 1 1 1 1 1 1 1
5 4 4 3 2 2 2 2 2 2 1 1 1 1 1 1 1 1 1 0 0 0 0 0 0 0 0 0 0 0 0 0 0 0 0 0 1 1 1 1 1 1 1
5 5 4 3 2 2 2 2 2 2 1 1 1 1 1 1 1 1 1 1 0 0 0 0 1 1 0 0 0 0 0 0 0 0 0 0 0 0 1 1 1 1 1
5 5 5 4 3 2 2 2 2 2 1 1 1 1 1 1 1 1 1 1 1 1 1 1 1 1 1 1 1 1 0 0 0 0 0 0 0 0 0 1 1 1 1
5 6 6 5 3 3 2 2 2 2 1 1 1 1 1 1 1 1 1 1 1 1 1 1 1 1 1 1 1 1 1 0 0 0 0 0 0 0 0 0 0 1 1
7 7 7 6 4 3 2 2 2 2 1 1 1 1 1 1 1 1 1 1 1 1 1 1 1 1 1 1 1 1 1 0 0 0 0 0 0 0 0 0 0 0 0
Wind_Speed
3 4 10 12 12 13 14 14 14 14 14 15 16 16 16 15 15 15 15 14 14 14 14 14 13 13 13 13 14 14 14 14 14 14 14 14 14 14 14 15 13 10 15
7 6 11 12 13 13 14 14 14 14 14 14 15 15 15 15 14 14 14 14 14 13 13 13 13 13 12 12 13 13 13 13 13 14 14 13 13 13 13 13 13 8 14
9 7 10 12 13 13 13 13 13 14 14 13 14 14 14 14 14 14 13 13 13 13 13 12 12 12 12 12 12 12 11 12 12 13 12 6 7 12 12 13 14 13 13
10 7 9 13 12 13 13 13 13 13 13 13 13 13 13 13 14 14 13 13 12 12 12 11 11 11 11 11 10 10 11 11 11 12 6 4 5 11 13 13 13 13 13
9 7 9 14 13 13 13 12 13 13 13 13 12 13 13 13 13 13 13 12 12 12 11 10 10 10 10 10 9 9 9 9 9 8 4 4 4 10 12 13 13 13 13
8 6 9 14 13 13 13 12 12 12 12 12 12 12 12 12 12 12 12 12 11 11 10 10 9 9 9 8 8 8 7 8 8 5 5 4 4 10 12 12 13 12 12
9 6 8 14 14 13 13 12 12 12 12 11 11 11 11 11 11 12 12 11 11 10 10 9 8 8 8 7 7 6 7 8 5 5 4 4 5 10 11 11 12 12 12
11 7 8 13 14 13 13 12 12 12 11 11 11 10 10 10 11 11 11 11 10 10 9 8 8 7 6 6 6 5 5 7 6 6 4 4 7 10 11 11 11 12 12
10 8 5 6 9 12 12 12 11 11 11 10 10 10 10 10 10 10 10 10 9 9 9 8 7 6 5 5 4 4 4 6 4 4 6 4 8 10 11 11 11 11 11
8 7 6 5 5 5 6 11 11 11 10 10 10 10 10 9 9 10 8 8 9 9 8 7 6 5 4 4 3 3 3 4 4 4 3 5 11 11 12 11 11 11 11
9 6 6 6 5 5 5 8 9 9 9 9 7 9 7 3 3 4 7 9 9 8 7 7 6 4 3 2 2 2 2 2 4 3 3 8 11 12 12 12 11 11 10
10 8 7 7 6 5 5 5 3 4 4 3 3 4 3 2 2 4 6 8 8 7 6 6 5 3 2 0 0 0 1 4 3 3 4 10 11 12 12 12 11 11 10
10 9 8 8 7 6 4 4 2 2 2 3 3 3 3 2 2 2 2 3 3 3 2 2 1 1 1 1 0 1 2 3 2 2 5 11 11 12 12 12 11 11 10
10 9 8 8 6 6 5 4 4 3 3 3 3 4 3 2 2 2 1 1 1 1 1 1 1 1 1 2 2 2 3 3 3 2 5 12 11 11 12 12 12 11 11
9 8 8 8 7 6 5 4 4 4 4 4 3 4 4 3 3 3 2 2 2 2 2 1 1 1 1 2 2 3 4 4 5 4 4 11 11 11 12 12 12 12 12
9 8 7 8 7 6 5 4 4 4 4 3 3 4 5 4 4 4 3 2 2 2 2 2 2 2 2 1 1 2 3 3 4 5 3 6 11 11 11 12 12 12 12
10 9 8 8 7 6 5 4 4 4 4 3 3 4 5 4 4 4 3 2 2 2 2 1 2 1 1 1 1 2 2 3 4 4 4 3 5 10 12 12 12 12 12
10 9 8 8 7 6 4 4 3 3 4 3 3 3 5 5 5 4 3 3 3 2 2 2 1 1 0 1 1 1 1 2 3 4 4 4 3 4 8 12 12 12 12
11 10 8 7 7 6 4 3 3 3 3 3 3 3 4 5 5 4 3 3 2 2 2 2 2 2 1 1 1 1 1 2 3 4 4 5 4 4 4 7 11 12 13
10 9 8 7 7 5 4 3 2 2 2 2 3 4 4 4 4 4 3 3 3 2 1 1 2 2 2 2 1 1 1 1 1 3 4 4 4 5 4 4 5 7 12
8 8 9 8 6 5 3 3 2 2 2 2 3 4 4 4 4 4 2 2 2 3 3 3 2 2 1 1 1 1 2 1 1 1 2 3 3 4 4 4 3 3 4
10 9 9 8 7 6 4 3 3 3 2 2 3 3 4 4 4 4 4 3 3 3 3 3 2 2 1 2 2 1 1 3 2 1 1 2 3 2 3 5 4 4 3
11 11 10 9 8 7 5 3 2 2 1 1 1 2 3 4 4 4 4 4 3 3 3 3 3 4 2 1 2 3 3 3 2 2 1 0 1 2 2 3 4 4 4
11 10 9 9 8 7 6 5 5 4 3 3 3 2 3 3 4 4 4 4 4 3 3 4 3 3 3 2 2 2 3 4 2 1 2 1 0 1 1 2 2 3 3
11 10 8 8 7 7 6 6 6 4 3 2 2 3 2 2 3 3 4 4 3 3 3 3 3 3 3 3 3 2 2 1 2 2 2 1 1 1 1 1 1 2 3
9 9 8 8 7 7 7 6 6 6 5 4 3 3 3 2 2 3 3 3 3 3 3 3 3 3 3 3 2 2 3 2 3 3 3 2 2 1 1 0 1 1 2
Wind_Direction
129 128 116 110 108 106 105 104 102 100 100 100 100 103 105 107 110 112 112 114 114 114 114 114 114 114 115 117 117 118 119 119 118 119 120 120 120 118 117 117 113 111 114
143 132 119 114 110 110 109 107 106 104 103 103 104 106 108 108 109 112 112 113 114 113 114 116 117 118 118 118 118 120 122 122 121 120 119 117 119 119 119 120 119 121 120
132 127 121 117 114 112 112 112 111 108 107 106 106 107 108 109 109 112 112 115 116 116 116 117 119 121 121 120 121 123 126 124 122 119 114 106 115 120 122 125 124 124 124
133 129 127 123 120 118 116 113 112 113 111 111 111 111 112 112 113 114 116 118 120 119 119 121 122 122 124 124 123 124 128 129 127 122 111 111 118 123 125 128 128 128 127
130 131 134 128 126 123 121 118 116 117 115 114 114 114 116 117 116 117 119 121 122 122 122 123 123 123 125 127 127 127 129 131 126 119 114 110 114 130 129 130 131 131 130
131 132 138 133 131 128 127 125 123 121 119 118 118 117 118 119 120 120 122 123 124 123 122 123 123 123 123 126 128 128 132 134 123 113 118 122 128 138 136 136 136 136 134
137 138 140 137 136 133 130 128 126 125 124 123 123 123 124 123 124 125 126 127 126 124 124 124 125 126 125 125 123 121 121 132 121 123 132 134 142 142 140 140 139 140 139
142 142 142 141 139 136 134 132 131 130 128 126 126 126 129 131 130 129 129 130 130 128 128 130 132 132 131 129 123 116 119 133 127 131 133 141 148 146 146 144 143 144 145
141 141 138 143 141 141 139 137 136 135 134 133 132 132 134 136 138 136 135 136 137 136 136 137 139 138 135 132 128 121 123 133 127 137 147 151 152 153 152 151 150 150 150
141 144 141 143 140 139 141 143 142 143 143 142 139 138 140 138 139 141 142 144 145 146 145 145 145 145 143 144 148 142 129 128 136 144 144 160 159 159 158 156 154 155 155
149 155 154 154 151 148 153 153 148 148 149 146 144 144 138 125 126 142 149 151 151 152 155 156 158 160 163 172 180 165 122 128 135 138 154 163 162 162 162 161 160 161 162
159 168 169 166 166 166 164 145 146 148 146 143 150 144 131 136 151 152 157 161 162 164 167 168 169 171 171 173 198 65 120 142 143 154 170 168 166 167 166 164 166 167 169
162 166 170 172 171 168 155 154 157 149 153 160 171 166 150 140 138 140 146 162 164 165 166 170 175 179 175 187 187 174 159 141 149 167 175 174 173 174 172 171 171 172 172
157 165 168 169 165 164 155 163 164 164 170 175 183 174 156 147 144 151 162 166 164 165 189 212 204 210 213 218 206 189 168 153 160 166 181 179 179 178 177 178 179 179 178
156 162 164 163 157 152 148 166 165 172 177 177 173 175 169 162 160 169 180 183 188 189 189 192 207 223 218 218 208 174 159 160 165 170 181 185 184 183 183 185 187 187 188
156 157 156 156 154 148 151 159 163 174 176 169 174 181 174 165 164 168 177 188 193 197 191 185 192 201 205 190 184 177 169 171 171 176 179 188 190 190 191 192 192 193 194
156 156 158 157 152 148 153 162 161 171 167 167 177 178 172 166 167 168 173 185 196 194 184 177 182 170 177 167 173 187 183 182 172 179 178 185 195 200 199 198 198 197 199
155 156 163 160 152 153 154 154 153 161 159 165 171 170 175 176 173 168 173 190 192 177 166 166 161 139 146 179 206 229 204 187 179 183 183 190 195 205 207 203 202 203 204
161 159 161 155 158 158 152 144 143 151 160 163 160 167 178 179 174 166 177 190 175 164 177 183 157 155 166 208 234 238 238 206 197 192 190 196 196 202 203 209 209 209 212
162 160 158 157 163 155 138 122 116 138 163 164 168 180 180 180 175 164 174 186 173 162 182 181 172 179 175 186 227 298 290 248 216 200 197 193 192 197 195 204 212 217 217
161 159 160 161 167 157 144 148 152 173 175 179 193 193 184 186 176 164 178 178 173 178 196 190 172 180 199 159 97 5 344 322 265 224 197 186 193 198 194 202 210 211 217
170 168 166 170 170 169 169 166 162 163 180 187 195 194 190 183 179 178 178 184 185 184 194 192 173 167 208 164 143 116 341 341 340 275 210 194 194 194 201 207 207 210 215
175 175 174 174 171 172 166 147 127 106 90 117 185 210 208 189 188 186 183 183 187 180 190 200 183 175 196 217 170 158 169 225 285 320 318 214 186 188 206 203 201 207 208
180 175 169 170 170 172 166 163 165 172 186 203 193 197 209 198 192 190 184 186 188 186 193 207 194 184 173 203 220 203 185 171 173 268 320 321 255 221 228 212 210 213 209
174 171 169 167 170 172 171 171 170 181 189 188 182 189 204 203 196 189 184 182 184 191 197 200 193 190 183 190 199 198 193 181 170 171 241 274 314 273 241 210 202 214 208
167 168 168 168 174 173 172 172 173 180 181 176 190 190 200 201 211 205 186 180 186 195 200 200 195 193 194 197 204 193 180 185 190 178 205 230 243 265 264 221 197 204 198